2023/05/01 00:00:00, 0.1, 7.1
2023/05/01 00:10:00, 0.1, 6.8
2023/05/01 00:20:00, 0.0, 6.6
2023/05/01 00:30:00, 0.0, 6.7
2023/05/01 00:40:00, 0.0, 6.5
2023/05/01 00:50:00, 0.0, 6.4
2023/05/01 01:00:00, 0.0, 6.2
2023/05/01 01:10:00, 0.0, 6.3
2023/05/01 01:20:00, 0.0, 6.2
2023/05/01 01:30:00,16.0, 6.1
2023/05/01 01:40:00,---, 6.2
2023/05/01 01:50:00,156.4, 6.0
2023/05/01 02:00:00,---, 6.0
2023/05/01 02:10:00,40.3, 5.9
2023/05/01 02:20:00,---, 5.7
2023/05/01 02:30:00,---, 5.7
2023/05/01 02:40:00,---, 5.8
2023/05/01 02:50:00, 0.0, 6.0
2023/05/01 03:00:00,---, 5.9
2023/05/01 03:10:00, 2.7, 5.8
2023/05/01 03:20:00, 1.6, 5.7
2023/05/01 03:30:00, 1.6, 5.8
2023/05/01 03:40:00, 2.9, 6.0
2023/05/01 03:50:00,13.3, 5.8
2023/05/01 04:00:00,13.1, 6.0
2023/05/01 04:10:00,15.0, 5.4
2023/05/01 04:20:00,13.2, 5.2
2023/05/01 04:30:00, 6.4, 5.1
2023/05/01 04:40:00, 5.6, 5.1
2023/05/01 04:50:00, 4.9, 4.9
2023/05/01 05:00:00, 4.5, 4.8
2023/05/01 05:10:00,14.0, 5.3
2023/05/01 05:20:00, 9.3, 5.7
2023/05/01 05:30:00,13.1, 5.8
2023/05/01 05:40:00,12.8, 6.0
2023/05/01 05:50:00,15.1, 6.3
2023/05/01 06:00:00,19.0, 7.1
2023/05/01 06:10:00,20.9, 7.7
2023/05/01 06:20:00,21.9, 8.0
2023/05/01 06:30:00,23.4, 8.0
2023/05/01 06:40:00,27.9, 8.3
2023/05/01 06:50:00,36.2, 9.2
2023/05/01 07:00:00,33.5,10.4
2023/05/01 07:10:00, 6.2,11.3
2023/05/01 07:20:00, 1.5,12.4
2023/05/01 07:30:00, 1.4,13.4
2023/05/01 07:40:00,---,14.8
2023/05/01 07:50:00,---,15.0
2023/05/01 08:00:00,18.7,16.2
2023/05/01 08:10:00,33.4,17.6
2023/05/01 08:20:00,23.4,19.1
2023/05/01 08:30:00,12.2,19.8
2023/05/01 08:40:00,10.2,19.8
2023/05/01 08:50:00, 7.9,21.9
2023/05/01 09:00:00, 9.0,22.3
2023/05/01 09:10:00,10.7,23.9
2023/05/01 09:20:00,12.6,24.2
2023/05/01 09:30:00, 7.3,24.2
2023/05/01 09:40:00, 7.9,23.6
2023/05/01 09:50:00,25.1,23.2
2023/05/01 10:00:00,25.4,24.2
2023/05/01 10:10:00,14.6,24.6
2023/05/01 10:20:00,36.1,20.3
2023/05/01 10:30:00,29.5,22.1
2023/05/01 10:40:00,39.7,22.9
2023/05/01 10:50:00,39.3,22.5
2023/05/01 11:00:00,40.6,23.7
2023/05/01 11:10:00,40.4,22.1
2023/05/01 11:20:00,36.5,22.3
2023/05/01 11:30:00,34.5,22.5
2023/05/01 11:40:00,18.3,22.2
2023/05/01 11:50:00,17.6,20.8
2023/05/01 12:00:00,34.2,19.1
2023/05/01 12:10:00,34.7,18.9
2023/05/01 12:20:00,35.4,20.6
2023/05/01 12:30:00,35.6,19.6
2023/05/01 12:40:00,34.8,18.9
2023/05/01 12:50:00,34.8,20.7
2023/05/01 13:00:00,35.7,21.2
2023/05/01 13:10:00,35.6,19.5
2023/05/01 13:20:00,34.7,21.9
2023/05/01 13:30:00,---,20.8
2023/05/01 13:40:00,21.1,21.1
2023/05/01 13:50:00,24.4,20.6
2023/05/01 14:00:00,33.7,20.3
2023/05/01 14:10:00,34.7,20.7
2023/05/01 14:20:00,34.2,18.0
2023/05/01 14:30:00,33.5,17.8
2023/05/01 14:40:00,32.7,19.1
2023/05/01 14:50:00,35.9,16.9
2023/05/01 15:00:00,35.3,16.3
2023/05/01 15:10:00,35.4,16.0
2023/05/01 15:20:00,34.8,17.9
2023/05/01 15:30:00,32.5,17.2
2023/05/01 15:40:00,35.1,16.1
2023/05/01 15:50:00,33.9,16.0
2023/05/01 16:00:00,33.2,17.2
2023/05/01 16:10:00,25.0,16.6
2023/05/01 16:20:00,26.3,16.2
2023/05/01 16:30:00,18.4,16.8
2023/05/01 16:40:00,21.0,16.2
2023/05/01 16:50:00,23.5,18.5
2023/05/01 17:00:00,29.5,17.8
2023/05/01 17:10:00,21.3,17.8
2023/05/01 17:20:00,19.8,17.6
2023/05/01 17:30:00,28.0,18.2
2023/05/01 17:40:00,24.6,18.4
2023/05/01 17:50:00,24.7,18.7
2023/05/01 18:00:00,25.3,18.4
2023/05/01 18:10:00,23.7,17.1
2023/05/01 18:20:00,27.2,16.4
2023/05/01 18:30:00,21.0,14.2
2023/05/01 18:40:00,16.2,13.7
2023/05/01 18:50:00,16.0,13.3
2023/05/01 19:00:00,14.9,13.1
2023/05/01 19:10:00,14.4,13.1
2023/05/01 19:20:00,13.3,12.5
2023/05/01 19:30:00, 8.4,12.4
2023/05/01 19:40:00, 3.6,12.4
2023/05/01 19:50:00, 1.9,11.6
2023/05/01 20:00:00, 1.5,11.5
2023/05/01 20:10:00, 1.4,11.2
2023/05/01 20:20:00, 1.3,10.9
2023/05/01 20:30:00, 1.1,10.2
2023/05/01 20:40:00, 1.2, 9.2
2023/05/01 20:50:00, 1.1, 8.7
2023/05/01 21:00:00, 1.1, 8.9
2023/05/01 21:10:00, 0.8, 8.4
2023/05/01 21:20:00, 0.8, 7.8
2023/05/01 21:30:00, 0.6, 8.3
2023/05/01 21:40:00, 0.4, 7.8
2023/05/01 21:50:00, 0.5, 7.4
2023/05/01 22:00:00, 0.6, 7.1
2023/05/01 22:10:00, 0.4, 6.8
2023/05/01 22:20:00,16.9, 6.7
2023/05/01 22:30:00,38.8, 6.8
2023/05/01 22:40:00,31.3, 6.6
2023/05/01 22:50:00,21.1, 6.1
2023/05/01 23:00:00,26.2, 6.0
2023/05/01 23:10:00,35.1, 6.3
2023/05/01 23:20:00, 9.6, 6.0
2023/05/01 23:30:00, 6.1, 5.8
2023/05/01 23:40:00, 5.5, 6.3
2023/05/01 23:50:00, 3.3, 6.6
